[[{"header":{"parameterUnit":"m.s-1","parameterCategory":1,"la1":30.2991,"la2":30.254,"lo1":-89.0895,"lo2":-89.0444,"dy":0.0017,"dx":0.0017,"nx":28,"ny":28,"refTime":"2024-09-01T09:00:00:Z","depth":0,"parameterNumber":2,"parameterNumberName":"U-component_of_WINDS"},"data":[0,0,0,0,0,0,0,0,0,0,0,0,0,0,0,0,0,0,0,0,0,0,0,0,0,0,0,0,0,0,0,0,0,0,0,0,0,0,0,0,0,0,0,0,0,0,0,0,0,0,0,0,0,0,0,0,0,0,-1.4878,-1.4877,0,-1.4798,-1.4797,-1.4796,-1.465,-1.4647,-1.4644,-1.4642,-1.4569,-1.457,-1.4571,0,0,0,0,0,0,0,0,0,0,0,0,0,-1.4914,-1.4914,-1.4878,-1.4877,-1.4876,-1.4798,-1.4797,-1.4796,-1.4651,-1.4647,-1.4644,-1.464,-1.4569,-1.457,-1.4571,0,0,0,0,0,0,0,0,0,0,0,0,0,-1.4873,-1.4914,-1.4879,-1.4794,-1.4786,-1.4798,-1.4797,-1.4795,-1.4651,-1.4647,-1.4643,-1.4639,-1.4569,-1.457,-1.4571,-1.4662,0,0,-1.4574,-1.4575,0,0,0,0,0,0,0,0,-1.4875,-1.4872,-1.4808,-1.48,-1.4791,-1.4729,-1.4782,-1.4751,-1.4652,-1.4703,-1.4642,-1.4637,-1.4627,-1.4623,-1.4617,-1.4659,-1.4655,-1.4574,-1.4575,-1.4575,-1.4576,0,0,0,0,0,0,0,-1.4878,-1.4874,-1.4847,-1.4807,-1.4796,-1.4763,-1.4752,-1.4776,-1.469,-1.4698,-1.4687,-1.4679,-1.4621,-1.4617,-1.4614,-1.4654,-1.4574,-1.4575,-1.4576,-1.4576,-1.4766,-1.477,0,0,0,0,0,0,-1.4892,-1.4878,-1.4849,-1.4844,-1.4823,-1.4766,-1.4754,-1.4754,-1.4689,-1.4675,-1.4683,-1.4673,-1.4617,-1.4613,-1.4611,-1.4713,-1.4575,-1.4576,-1.4577,-1.4761,-1.4767,-1.4771,0,0,0,0,0,0,-1.4894,-1.4891,-1.4852,-1.4858,-1.485,-1.4769,-1.477,-1.4754,-1.4749,-1.4677,-1.4662,-1.4693,-1.4613,-1.461,-1.4649,-1.4709,-1.4577,-1.4578,-1.4756,-1.4763,-1.4769,-1.4919,0,0,0,0,0,0,-1.4895,-1.4893,-1.4925,-1.486,-1.4851,-1.489,-1.4774,-1.4756,-1.475,-1.4736,-1.4683,-1.467,-1.461,-1.4649,-1.4651,-1.4708,-1.4578,-1.475,-1.4759,-1.4767,-1.4908,-1.493,-1.4948,0,0,0,0,0,-1.4897,-1.4973,-1.4927,-1.4925,-1.4889,-1.4894,-1.4889,-1.4815,-1.4755,-1.4788,-1.4742,-1.4672,-1.4701,-1.4654,-1.4655,-1.4713,-1.4746,-1.4757,-1.4766,-1.4899,-1.4925,-1.4947,0,0,0,0,0,0,-1.5052,-1.4963,-1.4911,-1.4967,-1.4939,-1.4869,-1.4909,-1.4845,-1.4836,-1.4823,-1.4734,-1.4724,-1.4775,-1.4748,-1.4697,-1.4798,-1.4713,-1.4724,-1.4814,-1.4838,-1.4858,-1.4864,-1.4579,0,0,0,0,0,-1.5091,-1.51,-1.5023,-1.508,-1.5068,-1.4991,-1.4991,-1.4935,-1.4903,-1.4892,-1.4848,-1.4823,-1.4825,-1.483,-1.4829,-1.4902,-1.489,-1.4943,-1.4963,-1.498,-1.4991,-1.5027,-1.505,-1.4804,-1.4804,-1.4804,0,0,-1.5176,-1.5128,-1.514,-1.511,-1.5081,-1.5095,-1.4982,-1.5002,-1.5011,-1.4896,-1.4929,-1.4897,-1.4862,-1.4919,-1.4942,-1.4898,-1.5055,-1.4992,-1.5006,-1.5008,-1.504,-1.5063,-1.5084,-1.4811,-1.4809,-1.4808,0,0,-1.5335,-1.5299,-1.5342,-1.5315,-1.5271,-1.5218,-1.5229,-1.5168,-1.5141,-1.5172,-1.5085,-1.5097,-1.5104,-1.5083,-1.5073,-1.5221,-1.5157,-1.5224,-1.5329,-1.5366,-1.5385,-1.5402,-1.5456,-1.5476,-1.5234,-1.5235,-1.5235,0,-1.5446,-1.546,-1.5374,-1.5397,-1.5387,-1.5278,-1.5322,-1.5301,-1.5261,-1.5258,-1.5208,-1.5213,-1.5182,-1.5232,-1.5268,-1.5264,-1.5274,-1.523,-1.5388,-1.5404,-1.5419,-1.5469,-1.549,-1.5243,-1.5242,-1.5241,-1.524,0,-1.5598,-1.5609,-1.565,-1.5609,-1.5603,-1.5638,-1.5559,-1.5564,-1.5508,-1.5462,-1.5496,-1.5454,-1.5442,-1.545,-1.5398,-1.5493,-1.5466,-1.5404,-1.5317,-1.5452,-1.5498,-1.5517,-1.5255,-1.5252,-1.525,-1.5248,0,0,-1.5857,-1.5764,-1.5781,-1.5761,-1.5703,-1.5711,-1.574,-1.5725,-1.5731,-1.5707,-1.5731,-1.5737,-1.5678,-1.5667,-1.5611,-1.5643,-1.5764,-1.5576,-1.5574,-1.5614,-1.5867,-1.5915,-1.5939,-1.572,-1.5723,-1.5726,-1.587,0,-1.6005,-1.6047,-1.5969,-1.603,-1.604,-1.5935,-1.596,-1.5929,-1.5886,-1.589,-1.5843,-1.585,-1.5771,-1.5763,-1.579,-1.5744,-1.5814,-1.5732,-1.5744,-1.5745,-1.5757,-1.5963,-1.6014,-1.6153,-1.5887,-1.589,-1.5892,0,-1.6185,-1.6165,-1.6226,-1.6162,-1.6163,-1.6187,-1.6166,-1.617,-1.6133,-1.6099,-1.6085,-1.6017,-1.6044,-1.5958,-1.5994,-1.5941,-1.594,-1.5918,-1.5922,-1.5922,-1.5829,-1.597,-1.6195,-1.6216,-1.592,-1.5917,-1.5915,0,-1.6368,-1.6357,-1.6391,-1.6377,-1.6303,-1.6323,-1.6294,-1.6251,-1.6246,-1.6229,-1.6225,-1.6212,-1.6206,-1.6199,-1.613,-1.6074,-1.6175,-1.6084,-1.615,-1.6152,-1.6178,-1.6178,-1.6408,-1.6176,-1.6176,-1.6175,-1.6175,0,-1.6544,-1.6586,-1.6472,-1.6494,-1.6538,-1.6448,-1.6495,-1.6456,-1.6419,-1.6433,-1.6342,-1.6358,-1.6265,-1.6272,-1.6218,-1.6257,-1.6255,-1.623,-1.6216,-1.6239,-1.6243,-1.624,-1.6229,-1.6181,-1.6179,-1.6178,-1.6178,0,-1.6757,-1.6682,-1.6713,-1.6639,-1.6621,-1.6657,-1.6595,-1.6614,-1.6563,-1.6582,-1.6581,-1.6503,-1.6506,-1.6435,-1.6425,-1.6389,-1.6452,-1.642,-1.6464,-1.6454,-1.6525,-1.652,-1.6763,-1.679,-1.654,-1.6542,-1.6544,0,-1.6875,-1.6904,-1.6831,-1.6832,-1.6806,-1.6809,-1.6802,-1.6715,-1.6712,-1.6669,-1.6694,-1.6687,-1.6678,-1.6687,-1.6632,-1.6624,-1.6592,-1.6677,-1.659,-1.6612,-1.6594,-1.6594,-1.6597,-1.6697,-1.67,-1.6702,-1.6704,0,-1.7092,-1.7052,-1.7044,-1.7022,-1.7015,-1.6995,-1.697,-1.6977,-1.6881,-1.6883,-1.6882,-1.6874,-1.6861,-1.6857,-1.6837,-1.681,-1.6743,-1.6731,-1.6746,-1.6772,-1.6796,-1.6785,-1.6516,-1.6727,-1.6725,-1.6723,-1.6722,-1.6721,-1.7262,-1.7282,-1.7233,-1.7227,-1.7197,-1.7174,-1.7187,-1.7136,-1.7132,-1.7112,-1.7061,-1.7069,-1.703,-1.6996,-1.6974,-1.6981,-1.6939,-1.6961,-1.6966,-1.6974,-1.6987,-1.6793,-1.6977,-1.6976,-1.6975,-1.6975,-1.6974,0,-1.7475,-1.7437,-1.7432,-1.7396,-1.7391,-1.7322,-1.729,-1.7292,-1.7298,-1.7265,-1.7256,-1.7255,-1.725,-1.7193,-1.7181,-1.7198,-1.7167,-1.7198,-1.7197,-1.7192,-1.7025,-1.7013,-1.7223,-1.7223,-1.7223,-1.7223,-1.7223,-1.7223,-1.7586,-1.7616,-1.7571,-1.7586,-1.7548,-1.7552,-1.7539,-1.7518,-1.7491,-1.7493,-1.7486,-1.7447,-1.7405,-1.7389,-1.7382,-1.7365,-1.7366,-1.7409,-1.7383,-1.7228,-1.7204,-1.7181,-1.717,-1.7409,-1.741,-1.7549,-1.755,-1.7551]},{"header":{"parameterUnit":"m.s-1","parameterCategory":1,"la1":30.2991,"la2":30.254,"lo1":-89.0895,"lo2":-89.0444,"dy":0.0017,"dx":0.0017,"nx":28,"ny":28,"refTime":"2024-09-01T09:00:00:Z","depth":0,"parameterNumber":3,"parameterNumberName":"V-component_of_WINDS"},"data":[0,0,0,0,0,0,0,0,0,0,0,0,0,0,0,0,0,0,0,0,0,0,0,0,0,0,0,0,0,0,0,0,0,0,0,0,0,0,0,0,0,0,0,0,0,0,0,0,0,0,0,0,0,0,0,0,0,0,-1.8827,-1.8829,0,-1.9038,-1.9041,-1.9043,-1.9119,-1.9119,-1.9118,-1.9117,-1.933,-1.9336,-1.9343,0,0,0,0,0,0,0,0,0,0,0,0,0,-1.8486,-1.8492,-1.8827,-1.8829,-1.8832,-1.9038,-1.9041,-1.9044,-1.912,-1.9119,-1.9118,-1.9117,-1.9328,-1.9336,-1.9343,0,0,0,0,0,0,0,0,0,0,0,0,0,-1.866,-1.8494,-1.8826,-1.8895,-1.8903,-1.9037,-1.9041,-1.9045,-1.912,-1.9119,-1.9117,-1.9116,-1.9326,-1.9335,-1.9344,-1.9425,0,0,-1.9373,-1.9378,0,0,0,0,0,0,0,0,-1.865,-1.8672,-1.8882,-1.889,-1.89,-1.9051,-1.8999,-1.9172,-1.912,-1.9037,-1.9117,-1.9116,-1.9238,-1.9255,-1.9297,-1.9435,-1.9444,-1.9374,-1.938,-1.9384,-1.9387,0,0,0,0,0,0,0,-1.8638,-1.8663,-1.891,-1.8885,-1.8896,-1.8914,-1.8938,-1.9032,-1.9141,-1.9044,-1.905,-1.9075,-1.9243,-1.9287,-1.9302,-1.9447,-1.9374,-1.9382,-1.9388,-1.9392,-1.9664,-1.9666,0,0,0,0,0,0,-1.8614,-1.8653,-1.8904,-1.8917,-1.877,-1.8921,-1.8947,-1.9004,-1.914,-1.916,-1.9075,-1.9077,-1.9272,-1.9291,-1.931,-1.9415,-1.9384,-1.9393,-1.9398,-1.9663,-1.9665,-1.9666,0,0,0,0,0,0,-1.8607,-1.8636,-1.8895,-1.8787,-1.8821,-1.8928,-1.8991,-1.9009,-1.9053,-1.9164,-1.9183,-1.9101,-1.9272,-1.9297,-1.9397,-1.9424,-1.9397,-1.9406,-1.9661,-1.9663,-1.9665,-1.9625,0,0,0,0,0,0,-1.8597,-1.8633,-1.8665,-1.8787,-1.8826,-1.8979,-1.8993,-1.9013,-1.907,-1.9075,-1.9193,-1.9212,-1.9273,-1.9382,-1.9406,-1.9436,-1.9413,-1.9659,-1.9662,-1.9665,-1.9624,-1.9625,-1.9626,0,0,0,0,0,-1.8584,-1.8644,-1.8666,-1.8696,-1.8869,-1.898,-1.9003,-1.9073,-1.9072,-1.9105,-1.9176,-1.9208,-1.9416,-1.9392,-1.9419,-1.9453,-1.9658,-1.9661,-1.9664,-1.9624,-1.9625,-1.9626,0,0,0,0,0,0,-1.8521,-1.8661,-1.8687,-1.8788,-1.8872,-1.8993,-1.9037,-1.9072,-1.9156,-1.9157,-1.9239,-1.9265,-1.9359,-1.9416,-1.9385,-1.9539,-1.9539,-1.9548,-1.9498,-1.9501,-1.9502,-1.9486,-1.9421,0,0,0,0,0,-1.8519,-1.8599,-1.8716,-1.8794,-1.8835,-1.8928,-1.8979,-1.9026,-1.9115,-1.9151,-1.9229,-1.9314,-1.9399,-1.9453,-1.9537,-1.9632,-1.966,-1.9669,-1.967,-1.9671,-1.9678,-1.9734,-1.974,-1.9677,-1.9677,-1.9677,0,0,-1.8516,-1.8602,-1.8647,-1.8784,-1.8854,-1.8934,-1.8957,-1.904,-1.9101,-1.9163,-1.9263,-1.9323,-1.9423,-1.9522,-1.9569,-1.9572,-1.9701,-1.9675,-1.9674,-1.9682,-1.9738,-1.9744,-1.9749,-1.968,-1.9679,-1.9679,0,0,-1.855,-1.8623,-1.8697,-1.8767,-1.8874,-1.8936,-1.8953,-1.907,-1.9113,-1.9215,-1.9264,-1.9336,-1.948,-1.955,-1.9604,-1.9666,-1.9699,-1.9691,-1.9697,-1.9751,-1.9756,-1.9761,-1.9784,-1.9792,-1.9698,-1.9698,-1.9698,0,-1.8532,-1.8656,-1.873,-1.8812,-1.8871,-1.8932,-1.9008,-1.9072,-1.9199,-1.9239,-1.924,-1.9424,-1.9495,-1.9612,-1.9627,-1.9669,-1.9692,-1.9678,-1.9749,-1.9755,-1.9761,-1.9784,-1.9792,-1.9696,-1.9696,-1.9696,-1.9697,0,-1.8629,-1.8713,-1.876,-1.8884,-1.8948,-1.9026,-1.9112,-1.9167,-1.9209,-1.927,-1.9374,-1.9462,-1.9566,-1.9597,-1.9637,-1.972,-1.9718,-1.9734,-1.9736,-1.9764,-1.9787,-1.9797,-1.9694,-1.9694,-1.9695,-1.9695,0,0,-1.8629,-1.8795,-1.8811,-1.8868,-1.8991,-1.9058,-1.9138,-1.9241,-1.9288,-1.9374,-1.9444,-1.9565,-1.9581,-1.9643,-1.9691,-1.9739,-1.9784,-1.9749,-1.9752,-1.9753,-1.9882,-1.9871,-1.988,-1.9806,-1.9808,-1.981,-1.9874,0,-1.8681,-1.8829,-1.8899,-1.9016,-1.9096,-1.9156,-1.9227,-1.9309,-1.9369,-1.9445,-1.9511,-1.9596,-1.9609,-1.9647,-1.9697,-1.9768,-1.9811,-1.9764,-1.9873,-1.9875,-1.9847,-1.9892,-1.988,-1.9936,-1.9884,-1.9885,-1.9886,0,-1.8761,-1.8849,-1.8975,-1.909,-1.9126,-1.9188,-1.9289,-1.936,-1.9455,-1.9496,-1.9565,-1.9613,-1.97,-1.9695,-1.9816,-1.9783,-1.9831,-1.9873,-1.9877,-1.989,-1.9883,-1.9908,-1.9956,-1.9964,-1.9901,-1.99,-1.9899,0,-1.8751,-1.89,-1.8995,-1.9043,-1.9178,-1.9221,-1.9279,-1.9374,-1.9431,-1.9519,-1.9558,-1.9653,-1.9706,-1.9779,-1.9851,-1.9841,-1.9966,-1.9967,-2.0002,-2.0,-2.0026,-2.0024,-2.0084,-2.0055,-2.0055,-2.0055,-2.0055,0,-1.8802,-1.8876,-1.8993,-1.9051,-1.9137,-1.9216,-1.9298,-1.9361,-1.9445,-1.9516,-1.9573,-1.9639,-1.973,-1.9807,-1.9864,-1.9956,-1.9979,-2.0014,-2.0029,-2.001,-2.0006,-2.0044,-2.0042,-2.0057,-2.0057,-2.0056,-2.0056,0,-1.8805,-1.8886,-1.8993,-1.9114,-1.9146,-1.9204,-1.9307,-1.9366,-1.9429,-1.9519,-1.9544,-1.9643,-1.9737,-1.9816,-1.9939,-1.9977,-2.0074,-2.009,-2.0042,-2.005,-2.0081,-2.0078,-2.0169,-2.0185,-2.0144,-2.0144,-2.0144,0,-1.8833,-1.8892,-1.9019,-1.9072,-1.913,-1.9214,-1.9274,-1.9354,-1.9414,-1.9528,-1.9573,-1.9671,-1.9755,-1.9902,-1.9984,-2.0079,-2.0099,-2.0124,-2.0113,-2.0093,-2.0101,-2.0097,-2.0104,-2.0125,-2.0125,-2.0125,-2.0125,0,-1.8874,-1.8911,-1.8996,-1.9096,-1.9166,-1.9248,-1.9331,-1.937,-1.9466,-1.953,-1.9628,-1.9693,-1.982,-1.9917,-2.0021,-2.008,-2.0119,-2.0128,-2.0141,-2.0123,-2.0094,-2.0112,-2.0045,-2.0125,-2.0125,-2.0125,-2.0125,-2.0125,-1.8892,-1.8948,-1.9046,-1.9139,-1.9211,-1.9287,-1.9349,-1.9421,-1.9504,-1.9615,-1.9657,-1.9757,-1.9851,-1.9995,-2.0055,-2.0134,-2.014,-2.0158,-2.0164,-2.0167,-2.0166,-2.008,-2.0153,-2.0153,-2.0154,-2.0154,-2.0154,0,-1.8937,-1.9004,-1.9089,-1.9204,-1.9277,-1.9308,-1.9402,-1.9461,-1.9549,-1.9634,-1.9716,-1.9828,-1.9923,-2.0014,-2.0113,-2.0159,-2.018,-2.0183,-2.0181,-2.0194,-2.0154,-2.0134,-2.0165,-2.0165,-2.0165,-2.0165,-2.0165,-2.0165,-1.8969,-1.9066,-1.9116,-1.9249,-1.9315,-1.9415,-1.9466,-1.9537,-1.9606,-1.973,-1.981,-1.9868,-1.9956,-2.0063,-2.0151,-2.0176,-2.021,-2.0209,-2.0237,-2.0199,-2.0197,-2.0195,-2.0176,-2.0215,-2.0215,-2.0271,-2.0272,-2.0272]}]]